Home > Weather > Arendal > Past weeks

Flag for Norway Weather for the Past 2 Weeks in Arendal, Norway

Now
41 °F

Quite cool.


Feels Like: 38 °F
Forecast: 40 / 47 °F
Wind: 5 mph from Southeast

Location: Torungen Fyr

Current Time: Apr 29, 2016 at 6:49:37 PM

Latest Report: Apr 29, 2016 at 6:00 PM


Visibility: N/A

Pressure: 29.88 "Hg

Humidity: 85%

Dew Point: 37 °F

Location of ArendalLocation

Historic Weather in Arendal — Graph

°F

Arendal Temperature Yesterday

Maximum temperature yesterday: 45 °F (at 7:00 PM)
Minimum temperature yesterday: 39 °F (at 5:00 AM)
Average temperature yesterday: 42 °F

High & Low Weather Summary for the Past Weeks

 TemperatureHumidityPressure
High55 °F (Apr 20, 7:00 PM)94% (Apr 16, 10:00 PM)30.27 "Hg (Apr 16, 10:00 PM)
Low36 °F (Apr 25, 4:00 PM)31% (Apr 22, 7:00 PM)29.35 "Hg (Apr 16, 10:00 PM)
Average45 °F68%29.76 "Hg
* Reported Apr 14 5:00 PM — Apr 29 5:00 PM, Arendal, Weather by CustomWeather, © 2016

Note: Actual official high and low records may vary slightly from our data, if they occured in-between our weather recording intervals... More about our weather records

Advertising

Arendal Weather History for the Previous 24 Hours

Scroll right to see more
 ConditionsComfort  
Time TempWeatherWind HumidityBarometerVisibility
5:00 PM
Fri, Apr 29
41 °FQuite cool.10 mph85%29.87 "HgN/A
4:00 PM45 °FQuite cool.13 mph81%29.85 "HgN/A
3:00 PM46 °FCool.10 mph72%29.86 "HgN/A
2:00 PM46 °FCool.12 mph70%29.85 "HgN/A
1:00 PM44 °FQuite cool.10 mph78%29.85 "HgN/A
12:00 PM45 °FQuite cool.9 mph72%29.84 "HgN/A
11:00 AM44 °FQuite cool.3 mph79%29.83 "HgN/A
10:00 AM43 °FQuite cool.6 mph83%29.81 "HgN/A
9:00 AM42 °FQuite cool.7 mph82%29.79 "HgN/A
8:00 AM41 °FQuite cool.7 mph86%29.77 "HgN/A
7:00 AM39 °FChilly.8 mph88%29.75 "HgN/A
5:00 AM37 °FChilly.3 mph90%29.74 "HgN/A
11:00 PM
Thu, Apr 28
40 °FChilly.6 mph86%29.81 "HgN/A
10:00 PM42 °FQuite cool.6 mph83%29.83 "HgN/A
9:00 PM44 °FQuite cool.3 mph81%29.84 "HgN/A
8:00 PM45 °FCool.3 mph82%29.84 "HgN/A
7:00 PM45 °FCool.3 mph81%29.85 "HgN/A
6:00 PM45 °FQuite cool.7 mph82%29.85 "HgN/A
Weather by CustomWeather, © 2016

See weather overviewHow to use our weather pages